Date String (YYYY-MM-DD hh:mm:ss) UTC,Instrument flags,absolute air pressure of the measurement (hPa),sample flow rate (lpm),inlet stack bypass flow (lpm),air temperature of the measurement (°C),ambient temperature measured by the external sensor (°C),aerosol sample conditioner tube jacket temperature (°C),OPC LED temperature (°C),internal box temperature (°C),relative humidity of the measurement (%),span deviation,mass concentration of particles derived from Lorenz-Mie calculation of OPC scattering (μg/m³),mass concentration of particles derived from Lorenz-Mie calculation of OPC scattering (μg/m³),mass concentration of particles derived from Lorenz-Mie calculation of OPC scattering (μg/m³)
DateTimeUTC,F1_M11,P_M11,Q1_M11,Q2_M11,T1_M11,T2_M11,T3_M11,T4_M11,T5_M11,U1_M11,ZSPAN_M11,X2_M11,X0_M11,X1_M11
2023-08-05 01:00:00,SystemResetWarning,0831.3,5.00,000.00,028.8,026.6,000.0,037.1,030.5,18.3,0000.0,0002.56,0007.05,0001.77
2023-08-05 01:01:00,SystemResetWarning,0831.3,5.00,000.00,028.8,027.0,000.0,037.1,030.5,18.3,0000.0,0002.56,0006.86,0001.77
2023-08-05 01:02:00,SystemResetWarning,0831.3,5.00,000.00,028.9,027.3,000.0,037.1,030.6,18.4,0000.0,0002.59,0005.93,0001.77
2023-08-05 01:03:00,SystemResetWarning,0831.3,5.01,000.00,028.9,027.6,000.0,037.2,030.7,18.1,0000.0,0002.53,0005.66,0001.77
2023-08-05 01:04:00,SystemResetWarning,0831.3,5.00,000.00,029.0,027.5,000.0,037.2,030.8,18.4,0000.0,0002.53,0005.56,0001.76
2023-08-05 01:05:00,SystemResetWarning,0831.3,4.98,000.00,029.0,025.8,000.0,037.1,030.5,18.5,0000.0,0002.57,0005.68,0001.76
2023-08-05 01:06:00,SystemResetWarning,0831.3,5.01,000.00,028.9,024.8,000.0,037.0,030.3,18.4,0000.0,0002.58,0005.72,0001.77
2023-08-05 01:07:00,SystemResetWarning,0831.3,5.02,000.00,028.8,025.0,000.0,037.0,030.1,18.1,0000.0,0002.60,0005.19,0001.77
2023-08-05 01:08:00,SystemResetWarning,0831.3,5.00,000.00,028.8,025.4,000.0,037.0,030.1,18.7,0000.0,0002.60,0004.64,0001.77
2023-08-05 01:09:00,SystemResetWarning,0831.3,5.00,000.00,028.8,025.9,000.0,037.0,030.3,18.7,0000.0,0002.59,0004.41,0001.78
2023-08-05 01:10:00,SystemResetWarning,0831.3,5.00,000.00,028.8,026.3,000.0,037.1,030.4,18.8,0000.0,0002.57,0004.37,0001.78
2023-08-05 01:11:00,SystemResetWarning,0831.3,5.00,000.00,028.8,026.7,000.0,037.1,030.5,18.9,0000.0,0002.56,0004.32,0001.78
2023-08-05 01:12:00,SystemResetWarning,0831.3,5.00,000.00,028.9,027.1,000.0,037.1,030.6,18.9,0000.0,0002.54,0004.22,0001.78
2023-08-05 01:13:00,SystemResetWarning,0831.3,5.00,000.00,028.9,027.4,000.0,037.2,030.7,18.8,0000.0,0002.46,0003.90,0001.78
2023-08-05 01:14:00,SystemResetWarning,0831.3,5.00,000.00,029.0,027.5,000.0,037.2,030.7,19.0,0000.0,0002.47,0003.91,0001.78
2023-08-05 01:15:00,SystemResetWarning,0831.3,4.98,000.00,029.0,026.0,000.0,037.1,030.5,19.1,0000.0,0002.49,0004.01,0001.79
2023-08-05 01:16:00,SystemResetWarning,0831.3,5.01,000.00,028.9,024.8,000.0,037.0,030.2,19.2,0000.0,0002.52,0004.07,0001.81
2023-08-05 01:17:00,SystemResetWarning,0831.3,5.01,000.00,028.8,024.9,000.0,036.9,030.1,18.9,0000.0,0002.57,0004.37,0001.80
2023-08-05 01:18:00,SystemResetWarning,0831.3,5.01,000.00,028.7,025.2,000.0,037.0,030.1,18.7,0000.0,0002.56,0004.43,0001.80
2023-08-05 01:19:00,SystemResetWarning,0831.3,5.00,000.00,028.7,025.7,000.0,037.0,030.2,18.6,0000.0,0002.57,0004.52,0001.80
2023-08-05 01:20:00,SystemResetWarning,0831.4,4.99,000.00,028.7,026.2,000.0,037.1,030.3,19.0,0000.0,0002.56,0004.54,0001.81
2023-08-05 01:21:00,SystemResetWarning,0831.3,5.00,000.00,028.8,026.6,000.0,037.1,030.4,19.1,0000.0,0002.58,0004.68,0001.81
2023-08-05 01:22:00,SystemResetWarning,0831.3,5.01,000.00,028.8,027.0,000.0,037.1,030.6,18.9,0000.0,0002.59,0004.62,0001.82
2023-08-05 01:23:00,SystemResetWarning,0831.4,5.00,000.00,028.9,027.3,000.0,037.2,030.7,19.1,0000.0,0002.63,0004.68,0001.82
2023-08-05 01:24:00,SystemResetWarning,0831.4,4.99,000.00,028.9,027.5,000.0,037.2,030.7,19.2,0000.0,0002.67,0004.87,0001.82
2023-08-05 01:25:00,SystemResetWarning,0831.3,4.98,000.00,028.9,026.1,000.0,037.1,030.5,19.1,0000.0,0002.64,0004.80,0001.83
2023-08-05 01:26:00,SystemResetWarning,0831.3,5.01,000.00,028.8,024.7,000.0,037.0,030.2,19.3,0000.0,0002.62,0004.70,0001.82
2023-08-05 01:27:00,SystemResetWarning,0831.4,5.02,000.00,028.8,024.7,000.0,036.9,030.1,19.3,0000.0,0002.60,0004.68,0001.82
2023-08-05 01:28:00,SystemResetWarning,0831.3,5.00,000.00,028.7,025.1,000.0,036.9,030.0,19.8,0000.0,0002.55,0004.36,0001.81
2023-08-05 01:29:00,SystemResetWarning,0831.3,5.00,000.00,028.7,025.5,000.0,037.0,030.1,19.7,0000.0,0002.55,0004.29,0001.82
2023-08-05 01:30:00,SystemResetWarning,0831.4,5.00,000.00,028.7,026.0,000.0,037.0,030.2,20.0,0000.0,0002.51,0004.26,0001.81
2023-08-05 01:31:00,SystemResetWarning,0831.4,5.00,000.00,028.7,026.4,000.0,037.0,030.3,20.0,0000.0,0002.53,0004.44,0001.81
2023-08-05 01:32:00,SystemResetWarning,0831.4,5.00,000.00,028.8,026.8,000.0,037.1,030.5,19.8,0000.0,0002.49,0004.34,0001.81
2023-08-05 01:33:00,SystemResetWarning,0831.4,5.00,000.00,028.8,027.2,000.0,037.1,030.6,19.8,0000.0,0002.47,0004.25,0001.83
2023-08-05 01:34:00,SystemResetWarning,0831.4,5.01,000.00,028.9,027.4,000.0,037.1,030.7,19.7,0000.0,0002.45,0004.22,0001.83
2023-08-05 01:35:00,SystemResetWarning,0831.4,4.99,000.00,028.9,027.2,000.0,037.1,030.6,19.7,0000.0,0002.44,0004.19,0001.83
2023-08-05 01:36:00,SystemResetWarning,0831.4,5.00,000.00,028.9,025.6,000.0,037.0,030.4,19.7,0000.0,0002.47,0004.32,0001.83
2023-08-05 01:37:00,SystemResetWarning,0831.4,5.01,000.00,028.8,024.6,000.0,036.9,030.1,20.0,0000.0,0002.47,0004.57,0001.83
2023-08-05 01:38:00,SystemResetWarning,0831.4,5.00,000.00,028.7,024.8,000.0,036.9,030.1,19.9,0000.0,0002.47,0004.62,0001.84
2023-08-05 01:39:00,SystemResetWarning,0831.4,5.00,000.00,028.6,025.2,000.0,036.9,030.0,20.1,0000.0,0002.53,0004.84,0001.86
2023-08-05 01:40:00,SystemResetWarning,0831.4,5.00,000.00,028.6,025.6,000.0,037.0,030.1,20.2,0000.0,0002.56,0005.19,0001.87
2023-08-05 01:41:00,SystemResetWarning,0831.4,5.00,000.00,028.7,026.1,000.0,037.0,030.3,20.0,0000.0,0002.63,0005.65,0001.89
2023-08-05 01:42:00,SystemResetWarning,0831.4,5.00,000.00,028.7,026.5,000.0,037.0,030.4,19.9,0000.0,0002.66,0005.66,0001.88
2023-08-05 01:43:00,SystemResetWarning,0831.5,5.00,000.00,028.7,026.9,000.0,037.1,030.5,19.9,0000.0,0002.68,0005.65,0001.88
2023-08-05 01:44:00,SystemResetWarning,0831.5,5.01,000.00,028.8,027.2,000.0,037.1,030.6,19.6,0000.0,0002.69,0006.01,0001.86
2023-08-05 01:45:00,SystemResetWarning,0831.5,4.99,000.00,028.9,027.5,000.0,037.1,030.7,19.7,0000.0,0002.65,0006.12,0001.85
2023-08-05 01:46:00,SystemResetWarning,0831.5,4.99,000.00,028.9,027.7,000.0,037.2,030.8,19.5,0000.0,0002.67,0006.13,0001.85
2023-08-05 01:47:00,SystemResetWarning,0831.5,4.99,000.00,029.0,027.0,000.0,037.1,030.6,19.1,0000.0,0002.69,0006.26,0001.86
2023-08-05 01:48:00,SystemResetWarning,0831.5,5.00,000.00,028.9,025.2,000.0,037.0,030.3,19.2,0000.0,0002.69,0006.69,0001.88
2023-08-05 01:49:00,SystemResetWarning,0831.5,5.00,000.00,028.8,024.6,000.0,036.9,030.2,19.3,0000.0,0002.71,0006.60,0001.86
2023-08-05 01:50:00,SystemResetWarning,0831.5,5.01,000.00,028.7,024.8,000.0,036.9,030.0,19.3,0000.0,0002.71,0006.58,0001.86
2023-08-05 01:51:00,SystemResetWarning,0831.4,5.01,000.00,028.7,025.3,000.0,037.0,030.1,19.0,0000.0,0002.70,0006.53,0001.84
2023-08-05 01:52:00,SystemResetWarning,0831.5,4.99,000.00,028.7,025.7,000.0,037.0,030.2,19.2,0000.0,0002.69,0005.85,0001.84
2023-08-05 01:53:00,SystemResetWarning,0831.5,5.01,000.00,028.7,026.2,000.0,037.0,030.3,19.2,0000.0,0002.65,0006.29,0001.84
2023-08-05 01:54:00,SystemResetWarning,0831.6,5.00,000.00,028.7,026.6,000.0,037.1,030.4,18.9,0000.0,0002.69,0007.18,0001.84
2023-08-05 01:55:00,SystemResetWarning,0831.5,5.00,000.00,028.8,027.0,000.0,037.1,030.5,18.9,0000.0,0002.72,0007.11,0001.85
2023-08-05 01:56:00,SystemResetWarning,0831.6,5.00,000.00,028.8,027.3,000.0,037.1,030.6,18.9,0000.0,0002.73,0006.94,0001.85
2023-08-05 01:57:00,SystemResetWarning,0831.6,5.00,000.00,028.9,027.5,000.0,037.2,030.7,18.6,0000.0,0002.68,0006.81,0001.85
2023-08-05 01:58:00,SystemResetWarning,0831.6,4.99,000.00,028.9,027.7,000.0,037.2,030.7,18.6,0000.0,0002.70,0006.86,0001.83
2023-08-05 01:59:00,SystemResetWarning,0831.6,5.00,000.00,028.9,026.4,000.0,037.1,030.5,18.5,0000.0,0002.66,0006.23,0001.82
